Date String (YYYY-MM-DD hh:mm:ss) UTC,Instrument flags,Ambient pressure (hPa),Sample flow (lpm),Bypass flow (lpm),Sample temperature (°C),Ambient temperature (°C),ASC tube jacket temperature (°C),LED temperature (°C),Box temperature (°C),Sample RH (%),Span deviation,Mass concentration (μg/m³),Mass concentration (μg/m³),Mass concentration (μg/m³)
DateTimeUTC,F1_M11,P_M11,Q1_M11,Q2_M11,T1_M11,T2_M11,T3_M11,T4_M11,T5_M11,U1_M11,ZSPAN_M11,X0_M11,X2_M11,X1_M11
2023-04-14 04:00:00,,0814.8,5.01,0.00,28.4,26.5,00.0,36.9,29.9,08.1,0000.0,0005.42,0001.93,0001.19
2023-04-14 04:01:00,,0814.9,5.00,0.00,28.4,26.5,00.0,36.9,30.0,08.1,0000.0,0005.43,0001.93,0001.20
2023-04-14 04:02:00,,0814.9,4.99,0.00,28.4,26.6,00.0,36.8,29.9,08.1,0000.0,0005.17,0001.88,0001.21
2023-04-14 04:03:00,,0814.9,4.99,0.00,28.4,26.6,00.0,36.8,30.0,08.1,0000.0,0005.01,0001.90,0001.22
2023-04-14 04:04:00,,0814.9,5.02,0.00,28.4,26.6,00.0,36.8,29.9,08.1,0000.0,0004.88,0001.95,0001.22
2023-04-14 04:05:00,,0815.0,5.00,0.00,28.4,26.6,00.0,36.8,29.9,08.2,0000.0,0004.92,0001.93,0001.20
2023-04-14 04:06:00,,0814.9,5.00,0.00,28.4,26.6,00.0,36.8,29.9,08.2,0000.0,0004.26,0001.96,0001.20
2023-04-14 04:07:00,,0814.9,4.99,0.00,28.4,26.6,00.0,36.8,30.0,08.2,0000.0,0004.07,0001.99,0001.20
2023-04-14 04:08:00,,0814.9,5.00,0.00,28.4,26.6,00.0,36.8,30.0,08.2,0000.0,0004.30,0002.05,0001.22
2023-04-14 04:09:00,,0814.9,5.00,0.00,28.4,26.6,00.0,36.8,29.9,08.3,0000.0,0004.18,0002.02,0001.23
2023-04-14 04:10:00,,0814.9,5.00,0.00,28.4,26.6,00.0,36.8,29.9,08.3,0000.0,0004.26,0002.06,0001.23
2023-04-14 04:11:00,,0814.9,5.00,0.00,28.4,26.5,00.0,36.8,29.9,08.3,0000.0,0004.32,0002.08,0001.23
2023-04-14 04:12:00,,0814.9,5.01,0.00,28.4,26.5,00.0,36.8,29.9,08.3,0000.0,0004.23,0002.10,0001.24
2023-04-14 04:13:00,,0814.9,5.00,0.00,28.3,26.5,00.0,36.8,29.9,08.3,0000.0,0004.37,0002.16,0001.25
2023-04-14 04:14:00,,0814.9,5.00,0.00,28.3,26.5,00.0,36.8,29.8,08.3,0000.0,0004.50,0002.23,0001.25
2023-04-14 04:15:00,,0814.9,5.00,0.00,28.3,26.4,00.0,36.7,29.8,08.3,0000.0,0004.31,0002.21,0001.25
2023-04-14 04:16:00,,0814.9,5.00,0.00,28.3,26.4,00.0,36.7,29.8,08.3,0000.0,0004.21,0002.23,0001.26
2023-04-14 04:17:00,,0814.9,5.00,0.00,28.3,26.5,00.0,36.7,29.8,08.3,0000.0,0004.04,0002.17,0001.26
2023-04-14 04:18:00,,0815.0,5.01,0.00,28.3,26.5,00.0,36.7,29.8,08.3,0000.0,0003.94,0002.10,0001.26
2023-04-14 04:19:00,,0815.0,5.00,0.00,28.3,26.5,00.0,36.7,29.8,08.3,0000.0,0003.77,0002.06,0001.25
2023-04-14 04:20:00,,0815.0,5.00,0.00,28.3,26.5,00.0,36.7,29.8,08.4,0000.0,0003.89,0002.09,0001.27
2023-04-14 04:21:00,,0814.9,4.99,0.00,28.3,26.5,00.0,36.7,29.9,08.4,0000.0,0004.26,0002.07,0001.26
2023-04-14 04:22:00,,0815.0,4.99,0.00,28.3,26.5,00.0,36.7,29.9,08.3,0000.0,0004.34,0002.07,0001.25
2023-04-14 04:23:00,,0814.9,5.00,0.00,28.3,26.5,00.0,36.7,29.8,08.3,0000.0,0004.61,0002.03,0001.25
2023-04-14 04:24:00,,0815.0,5.01,0.00,28.3,26.5,00.0,36.7,29.8,08.2,0000.0,0004.56,0001.98,0001.23
2023-04-14 04:25:00,,0815.0,5.01,0.00,28.3,26.5,00.0,36.7,29.8,08.3,0000.0,0004.33,0001.89,0001.22
2023-04-14 04:26:00,,0815.1,5.00,0.00,28.3,26.5,00.0,36.7,29.8,08.3,0000.0,0004.32,0001.90,0001.22
2023-04-14 04:27:00,,0815.1,5.00,0.00,28.3,26.5,00.0,36.7,29.8,08.3,0000.0,0004.29,0001.88,0001.22
2023-04-14 04:28:00,,0815.2,4.99,0.00,28.3,26.6,00.0,36.7,29.8,08.3,0000.0,0004.41,0001.93,0001.22
2023-04-14 04:29:00,,0815.1,4.99,0.00,28.3,26.6,00.0,36.7,29.8,08.3,0000.0,0004.57,0001.99,0001.23
2023-04-14 04:30:00,,0815.1,5.00,0.00,28.3,26.6,00.0,36.7,29.9,08.3,0000.0,0004.56,0001.97,0001.23
2023-04-14 04:31:00,,0815.2,5.00,0.00,28.3,26.6,00.0,36.7,29.9,08.4,0000.0,0004.61,0001.95,0001.22
2023-04-14 04:32:00,,0815.2,5.00,0.00,28.3,26.7,00.0,36.7,29.9,08.4,0000.0,0004.26,0001.95,0001.22
2023-04-14 04:33:00,,0815.2,5.00,0.00,28.3,26.7,00.0,36.7,29.9,08.4,0000.0,0004.10,0001.93,0001.22
2023-04-14 04:34:00,,0815.2,4.99,0.00,28.3,26.7,00.0,36.7,29.9,08.4,0000.0,0003.79,0001.96,0001.23
2023-04-14 04:35:00,,0815.2,5.00,0.00,28.3,26.7,00.0,36.7,29.9,08.4,0000.0,0003.68,0001.94,0001.24
2023-04-14 04:36:00,,0815.3,5.00,0.00,28.4,26.7,00.0,36.7,30.0,08.5,0000.0,0003.83,0001.99,0001.25
2023-04-14 04:37:00,,0815.2,5.00,0.00,28.4,26.8,00.0,36.7,30.0,08.5,0000.0,0003.85,0001.98,0001.25
2023-04-14 04:38:00,,0815.2,5.00,0.00,28.4,26.8,00.0,36.7,30.0,08.5,0000.0,0003.85,0001.97,0001.25
2023-04-14 04:39:00,,0815.3,5.00,0.00,28.4,26.8,00.0,36.7,30.0,08.6,0000.0,0003.75,0001.91,0001.24
2023-04-14 04:40:00,,0815.3,5.01,0.00,28.4,26.8,00.0,36.7,29.9,08.5,0000.0,0003.58,0001.88,0001.23
2023-04-14 04:41:00,,0815.2,5.00,0.00,28.4,26.8,00.0,36.7,29.9,08.5,0000.0,0003.87,0001.88,0001.23
2023-04-14 04:42:00,,0815.2,5.00,0.00,28.4,26.8,00.0,36.7,29.9,08.6,0000.0,0003.91,0001.91,0001.22
2023-04-14 04:43:00,,0815.2,5.01,0.00,28.4,26.8,00.0,36.7,29.9,08.5,0000.0,0004.27,0002.02,0001.23
2023-04-14 04:44:00,,0815.2,4.99,0.00,28.4,26.8,00.0,36.7,29.9,08.5,0000.0,0004.27,0002.01,0001.24
2023-04-14 04:45:00,,0815.2,5.00,0.00,28.4,26.8,00.0,36.7,29.9,08.5,0000.0,0004.14,0001.95,0001.24
2023-04-14 04:46:00,,0815.1,5.00,0.00,28.4,26.8,00.0,36.7,29.9,08.5,0000.0,0004.13,0001.94,0001.23
2023-04-14 04:47:00,,0815.1,5.00,0.00,28.4,26.8,00.0,36.7,29.9,08.4,0000.0,0004.11,0001.95,0001.23
2023-04-14 04:48:00,,0815.1,5.00,0.00,28.4,26.8,00.0,36.7,30.0,08.5,0000.0,0004.06,0001.93,0001.22
2023-04-14 04:49:00,,0815.1,5.00,0.00,28.4,26.8,00.0,36.7,30.0,08.5,0000.0,0004.07,0001.96,0001.22
2023-04-14 04:50:00,,0815.1,5.00,0.00,28.4,26.8,00.0,36.7,30.0,08.4,0000.0,0004.15,0001.99,0001.23
2023-04-14 04:51:00,,0815.2,5.00,0.00,28.4,26.8,00.0,36.7,30.0,08.4,0000.0,0005.16,0001.99,0001.24
2023-04-14 04:52:00,,0815.1,5.00,0.00,28.4,26.8,00.0,36.7,30.0,08.4,0000.0,0005.25,0001.97,0001.23
2023-04-14 04:53:00,,0815.2,5.00,0.00,28.4,26.8,00.0,36.7,30.0,08.4,0000.0,0005.15,0001.98,0001.22
2023-04-14 04:54:00,,0815.2,5.00,0.00,28.4,26.8,00.0,36.7,30.0,08.4,0000.0,0004.94,0001.91,0001.22
2023-04-14 04:55:00,,0815.2,5.00,0.00,28.4,26.8,00.0,36.7,30.0,08.4,0000.0,0004.68,0001.85,0001.21
2023-04-14 04:56:00,,0815.2,4.99,0.00,28.4,26.8,00.0,36.8,30.0,08.3,0000.0,0004.97,0001.90,0001.21
2023-04-14 04:57:00,,0815.2,5.00,0.00,28.4,26.8,00.0,36.8,30.0,08.3,0000.0,0005.34,0001.95,0001.21
2023-04-14 04:58:00,,0815.1,5.00,0.00,28.4,26.8,00.0,36.8,30.0,08.3,0000.0,0005.60,0001.97,0001.20
2023-04-14 04:59:00,,0815.2,5.01,0.00,28.5,26.8,00.0,36.8,30.0,08.3,0000.0,0006.23,0001.95,0001.19
